Погода Большерецкий

Погода Большерецкий : погода сейчас, прогноз погоды и архив. Всё, что Вы хотите узнать о погоде Большерецкий!

Поиск расширенной информации на нашем сайте:

Другие новости

Новости СМИ2

Главная страница сайта

Новости сайта

03.07.2017

Напоминаем, что на нашем специализированном сайте Метеоцентр.Азия вы можете получить высокодетализированные автоматические прогнозы погоды по пунктам России, СНГ и мира в авиационном формате (включающие направление и скорость ветра, видимость, явления погоды, количество и форму облачности, нижнюю и верхнюю границу облачности).

Рекомендуем: Описание курсы английского языка по skype у нас на сайте.

Погода Большерецкий - сегодня

Время (UTC), дата Ветер
(°,м/с) 
Видим.   Явления Облачность Т
(°С)
Тd
(°С)
f(%) Тe
(°С)
Pmin
(гПа)
dP
(гПа)
Po
(мм)
O2
(г/м3)
Тmin Tmax R s Состояние
почвы
12 21.07.17 120 (ЮВ) 10 км  слаб. ливневой дождь  10/10 600 м кучево-дожд. 
[Cb cap]
+12.7 +12.3 97 +16  1010.4  -2.4  755  288           
18 21.07.17 160 (Ю) 8-12{15}  10 км  слаб. ливневой дождь  10/10 600 м кучево-дожд. 
[Cb cap]
+15.1 +13.6 91 +20  1005.5  -1.4  751  284           
21 21.07.17 170 (Ю) 7-11{18}  2000 м  слаб. ливневой дождь  10/10 300 м кучево-дожд. 
[Cb cap]
+15.5 +14.6 94 +23  1006.1  0.7  752  284  +12       
00 22.07.17 190 (Ю) 7-13{17}  2000 м  слаб. ливневой дождь  10/10 300 м кучево-дожд. 
[Cb cap]
+12.3 +11.8 97 +15  1006.6  0.5  752  288           
06 22.07.17 210 (ЮЗ) 3{10}  4000 м  слаб. ливневой дождь  10/10 300 м кучево-дожд. 
[Cb cap]
+11.3 +10.6 95 +13  1008.3  0.4  754  290           
09 22.07.17 150 (ЮВ) 10 км  слаб. ливневой дождь  10/10 600 м кучево-дожд. 
[Cb cap]
+10.8 +10.5 98 +12  1007.6  -0.7  753  290    +15.5     
12 22.07.17 190 (Ю) 10 км  слаб. ливневой дождь  10/10 600 м кучево-дожд. 
[Cb cap]
+11 +10.6 97 +14  1007.9  0.3  753  290           
15 22.07.17 170 (Ю) 10 км  слаб. ливневой дождь  10/10 600 м кучево-дожд. 
[Cb cap]
+11.2 +10.8 97 +13  1007.6  -0.3  753  289           
18 22.07.17 180 (Ю) 20000 м  в посл. час ливневой дождь  10/10 600 м кучево-дожд. 
[Cb calv]
+10.8 +10.5 98 +14  1008.3  0.8  754  290           
21 22.07.17 240 (ЮЗ) 0500 м  туман  ?/?  
+11.4 +11.1 98 +14  1010.5  2.1  755  290  +10.8       
00 23.07.17 230 (ЮЗ) 20000 м  в посл. час туман  10/10 600 м 
[Sc]
+14.2 +12.3 88 +19  1011  0.6  756  287           
03 23.07.17 210 (ЮЗ) 20000 м    10/10 600 м 
[Sc]
+14.4 +11.8 84 +18  1012.1  1.2  756  287           
06 23.07.17 230 (ЮЗ) 20000 м    10/10 600 м 
[Sc]
+13.3 +11.5 89 +17  1012.2  0.1  756  288           
09 23.07.17 230 (ЮЗ) 20000 м    10/10 600 м 
[Sc]
+11.5 +10.6 94 +15  1012.8  0.6  757  291    +14.8       
12 23.07.17 200 (Ю) 0500 м  туман  ?/?  
+10.8 +10.4 97 +14  1013.3  0.5  757  292           
15 23.07.17 310 (СЗ) 0500 м  туман  ?/?  
+10.6 +10.3 98 +13  1012.5  -0.8  757  292           
18 23.07.17 330 (СЗ) 0200 м  туман  ?/?  
+10.5 +10.3 99 +13  1011.9  -0.6  756  292           
21 23.07.17 080 (В) 0200 м  туман  ?/?  
+11.9 +11.7 99 +15  1011.3  -0.5  756  290  +10.5         
00 24.07.17 170 (Ю) 20000 м  {туман}  8/3 300 м верхняя 
[St|Ci]
+19 +14.7 76 +29  1010.6  -0.7  755  282           
03 24.07.17 220 (ЮЗ) 20000 м    9/9 600 м кучево-дожд. 
[Cb cap]
+17.4 +13.9 80 +25  1011.1  0.6  756  283           
06 24.07.17 160 (Ю) 20000 м    10/10 600 м кучево-дожд. 
[Cb cap]
+16.8 +15.9 94 +27  1011.4  0.2  756  283           
09 24.07.17 120 (ЮВ) 10 км  слаб. ливневой дождь  10/10 600 м кучево-дожд. 
[Cb cap]
+17.8 +17 95 +30  1011  -0.3  756  282    +20.3     
12 24.07.17 140 (ЮВ) 10 км  слаб. ливневой дождь  10/10 600 м кучево-дожд. 
[Cb cap]
+17.9 +16.7 93 +30  1009.9  -1.1  755  282           
18 24.07.17 160 (Ю) 7-14{15}  2000 м  ливневой дождь  10/10 300 м кучево-дожд. 
[Cb cap]
+15.3 +14.7 96 +23  1008.9  0.7  754  285           
21 24.07.17 140 (ЮВ) 5-10{16}  2000 м  ливневой дождь  10/10 300 м кучево-дожд. 
[Cb cap]
+17 +15.4 90 +26  1008  -0.8  753  282  +15.1    19     
Время (UTC), дата Ветер
(°,м/с) 
Видим.   Явления Облачность Т
(°С)
Тd
(°С)
f(%) Тe
(°С)
Pmin
(гПа)
dP
(гПа)
Po
(мм)
O2
(г/м3)
Тmin Tmax R s Состояние
почвы

Для получения пояснительной информации подведите курсор к названию столбца.

ПОГОДА Большерецкий - архив

Всё, что Вы хотите узнать о погоде Большерецкий - удобно и подробно!

Выберите нужную дату (начиная с 1 января 2015* года) и нажмите кнопку "Найти".
Будут отображены архивные сводки погоды по пункту Большерецкий, начиная с указанной даты.


Отображать данные в формате CSV (для использования в таблицах Excel)


Внимание! Наш архив погоды предназначен исключительно для личного некоммерческого использования в познавательных целях. Если Вам необходимы официальные справки о состоянии погоды (для производственных, юридических, коммерческих и т.п. целей), обращайтесь в органы Росгидромета.

*Примечание: данная дата относится к архиву по метеостанциям СССР (Россия, СНГ, Балтия).
Архив по метеостанциям Зарубежной Европы и Азии (кроме Китая) хранится 10 дней, по другим регионам земного шара (Китай, Африка, Америка, Австралия, Океания) - 1 день.

Большерецкий - район местоположения метеостанции


Название, широта, долгота, высота метеостанции:
Большерецкий 52.9°ш. 156.6°д. 27 м над ур. моря [Российская Федерация]

Дополнительная информация

В oтличие oт бoльшинства пoгoдных сайтoв мы публикуем пoдрoбную метеoинфoрмацию в детальнoм прoфессиoнальнoм фoрмате.

Характеристики температуры и влажнoсти вoздуха измеряются на высoте 2 м в тени вдали oт зданий и деревьев.
Скoрoсть ветра измеряется на высoте 10 м (на урoвне рoста челoвека скoрoсть ветра ниже в 1.5-2 раза). Если метеoстанция нахoдится в гoрoде или в лесу, тo скoрoсть ветра занижена на 2-4 м/с пo сравнению с oткрытым местoм. Скoрoсть ветра над акватoриями крупных рек и oзёр, а также на вершинах хoлмoв на 2-5 м/с выше, чем в oбычных услoвиях.
Атмoсфернoе давление в разных тoчках местнoсти мoжет значительнo oтличаться oт давления на метеoстанции, в зависимoсти oт услoвий рельефа (при пoдъёме на 10 м давление пoнижается примернo на 1 мм рт.ст.).